Regional Weather Roundup
Issued by NWS

Home | Current Version | Previous Version | Graphics & Text | Print | Product List | Glossary On
Versions: 1 2 3 4 5 6 7 8 9 10 11 12 13 14 15 16 17 18 19 20 21 22 23 24 25 26 27 28 29 30 31 32 33 34 35 36 37 38 39 40 41 42 43 44 45 46 47 48 49 50
000
ASUS43 KDMX 311507
RWRIA

WEATHER ROUNDUP FOR IOWA
NATIONAL WEATHER SERVICE DES MOINES IA
1000 AM CDT FRI JUL 31 2015

NOTE: "FAIR" INDICATES FEW OR NO CLOUDS BELOW 12,000 FEET WITH NO
SIGNIFICANT WEATHER AND/OR OBSTRUCTIONS TO VISIBILITY.

* - THESE STATIONS ARE NOT NWS STATIONS...THUS NOT UNDER NWS
QUALITY CONTROL.  THEY ALSO DO NOT REPORT WEATHER SUCH
AS PRECIPITATION OR FOG.

IAZ001>003-012>014-020>022-031>034-043>046-311600-
   NORTHWEST IOWA

CITY           SKY/WX    TMP DP  RH WIND       PRES   REMARKS
CARROLL *      SUNNY     77  70  78 NW5       30.15S
CHEROKEE *     SUNNY     77  68  73 CALM      30.15F
DENISON *      SUNNY     77  68  73 N3        30.13F HAZE
LE MARS *      SUNNY     79  68  69 CALM      30.16S HX  81
ORANGE CITY *  SUNNY     77  61  57 CALM      30.16S
SHELDON *      SUNNY     75  63  64 N7        30.16S
SIOUX CITY     SUNNY     77  66  68 E3        30.14F
SPENCER        SUNNY     76  59  55 N5        30.16S
STORM LAKE *   SUNNY     79  59  50 CALM      30.17S HX  80
$$

IAZ055>058-069>071-079>083-090>094-311600-
   SOUTHWEST IOWA

CITY           SKY/WX    TMP DP  RH WIND       PRES   REMARKS
ATLANTIC *     SUNNY     77  68  73 N3        30.15F
AUDUBON *      SUNNY     77  68  73 NW3       30.17F
CLARINDA *     SUNNY     79  70  73 SW5       30.16F HX  81
COUNCIL BLFS * SUNNY     81  70  69 SW7       30.15F HX  84
CRESTON *      SUNNY     77  68  73 CALM      30.17F
HARLAN  *      SUNNY     77  73  88 CALM      30.18F
LAMONI         PTSUNNY   77  66  68 W7        30.16S
RED OAK *      SUNNY     79  68  69 CALM      30.15F HX  81
SHENANDOAH *   SUNNY     77  68  73 CALM      30.16S
$$

IAZ047>049-059>061-072>074-084-311600-
   CENTRAL IOWA

CITY           SKY/WX    TMP DP  RH WIND       PRES   REMARKS
AMES           MOSUNNY   79  65  62 CALM      30.12F HX  81
ANKENY *       MOSUNNY   79  68  69 VRB5      30.13S HX  81
CHARITON *     SUNNY     79  66  65 W9        30.15S HX  81
DES MOINES     MOSUNNY   80  67  64 W5        30.12F HX  82
GRINNELL*      SUNNY     79  64  61 CALM      30.13F HX  81
KNOXVILLE *    SUNNY     77  66  69 W8        30.12F
MARSHALLTOWN     N/A     77  67  71 NW5       30.12S
PELLA *        SUNNY     79  70  73 NW5       30.13F HX  81
PERRY *          N/A     79  70  73 W3        30.14F HX  81
$$

IAZ004>006-015-016-023>025-035-036-311600-
   NORTH CENTRAL IOWA

CITY           SKY/WX    TMP DP  RH WIND       PRES   REMARKS
ALGONA *       SUNNY     75  61  60 N6        30.15S
CLARION *      SUNNY     75  64  69 N7        30.14S
ESTHERVILLE    SUNNY     73  60  63 N6        30.16R
FORT DODGE *   MOSUNNY   77  66  69 CALM      30.15S
MASON CITY     SUNNY     76  60  57 NW8       30.14S
FOREST CITY *  SUNNY     73  57  56 W7        30.14S
IOWA FALLS *     N/A     77  64  65 NW5       30.14F
$$

IAZ007>011-017>019-026>030-037>042-050>054-066-311600-
   NORTHEAST IOWA

CITY           SKY/WX    TMP DP  RH WIND       PRES   REMARKS
CEDAR RAPIDS   SUNNY     78  68  71 NW8       30.10S HX  80
CHARLES CITY * SUNNY     75  61  60 NW7       30.12F
CLINTON *      SUNNY     79  70  73 NW10      30.10S HX  81
DECORAH *      SUNNY     73  55  53 NW8       30.09S
DUBUQUE        SUNNY     78  62  57 NW12      30.09R HX  80
MONTICELLO *   SUNNY     79  64  61 NW9       30.08F HX  81
OELWEIN *      SUNNY     75  64  69 NW9       30.11F
WATERLOO       SUNNY     77  64  64 NW8       30.10S
$$

IAZ064-065-067-068-078-311600-
   EAST CENTRAL IOWA

CITY           SKY/WX    TMP DP  RH WIND       PRES   REMARKS
DAVENPORT      SUNNY     79  68  69 VRB7      30.09S HX  81
IOWA CITY      SUNNY     80  65  59 NW6       30.11S HX  82
MT. PLEASANT * SUNNY     82  61  47 W8        30.12S HX  83
MUSCATINE *    SUNNY     79  66  65 VRB6      30.09F HX  81
QUAD CITIES    SUNNY     80  66  62 NW8       30.08S HX  82
$$

IAZ062-063-075>077-085>089-095>099-311600-
   SOUTHEAST IOWA

CITY           SKY/WX    TMP DP  RH WIND       PRES   REMARKS
BURLINGTON     SUNNY     81  67  62 NW9G17    30.10F HX  83
FORT MADISON * SUNNY     79  66  65 NW13G18   30.12F HX  81
KEOKUK *       SUNNY     82  66  57 NW12      30.11F HX  85
OSKALOOSA *      N/A     77  68  73 NW5       30.12F
CENTERVILLE *  SUNNY     75  64  69 W8        30.16F
OTTUMWA        SUNNY     77  68  73 W9        30.11F
WASHINGTON *   SUNNY     79  70  73 NW7       30.12F HX  81
$$

ABBREVIATIONS USED IN REMARKS
   TC - TEMPERATURES IN CELSIUS
  WCI - WIND CHILL INDEX
   HX - HEAT INDEX
  VSB - VISIBILITY
$$



USA.gov is the U.S. government's official web portal to all federal, state and local government web resources and services.